Change the Weather History Date:

Saturday, August 25, 2012

  Actual Average Record
Temperature  
Mean Temperature 70 °F 73 °F  
Max Temperature 76 °F 85 °F 104 °F (1912)
Min Temperature 64 °F 61 °F 42 °F (1934)
Degree Days  
Heating Degree Days 0 0  
Month to date heating degree days 4 0  
Since 1 June heating degree days 15 26  
Since 1 July heating degree days 4 2  
Cooling Degree Days 5 8  
Month to date cooling degree days 227 242  
Year to date cooling degree days 1295 869  
Since 1 June cooling degree days 1113 804  
Growing Degree Days 20 (Base 50)    
Moisture  
Dew Point 66 °F    
Average Humidity 87    
Maximum Humidity 100    
Minimum Humidity 74    
Precipitation  
Precipitation 0.36 in 0.09 in 2.28 in (1987)
Month to date precipitation 0.94 2.59  
Year to date precipitation 8.11 20.24  
Snow  
Snow 0.00 in 0.00 in - ()
Month to date snowfall 0.0 0.0  
Since 1 June snowfall 0.0 0.0  
Since 1 July snowfall 0.0 0.0  
Snow Depth 0.00 in    
Sea Level Pressure  
Sea Level Pressure 29.86 in    
Wind  
Wind Speed 6 mph (South)    
Max Wind Speed 18 mph    
Max Gust Speed 23 mph    
Visibility 8 miles    
Events Rain , Thunderstorm    
T = Trace of Precipitation, MM = Missing Value Source: NWS Daily Summary

Daily Weather History Graph

Daily Weather History Graph

Search for Another Location

Airport or City:

Trip Planner

Search our weather history database for the weather conditions in past years. The results will help you decide how hot, cold, wet, or windy it might be!

Date:

Astronomy

Aug. 25, 2012 Rise Set
Actual Time 6:53 AM CDT 8:16 PM CDT
Civil Twilight 6:24 AM CDT 8:44 PM CDT
Nautical Twilight 5:50 AM CDT 9:18 PM CDT
Astronomical Twilight 5:14 AM CDT 9:55 PM CDT
Moon 3:52 PM CDT (8/25) 12:36 AM CDT (8/25)
Length of Visible Light 14h 19m
Length of Day
13h 22m
Waxing Gibbous, 63% of the Moon is Illuminated
Aug 25
Waxing Gibbous
Aug 31
Full
Sep 8
Last Quarter
Sep 15
New
Sep 22
First Quarter

Hourly Weather History & Observations

Time (CDT) Temp. Dew Point Humidity Pressure Visibility Wind Dir Wind Speed Gust Speed Precip Events Conditions
12:12 AM 69.8 °F 66.2 °F 88% 29.83 in 7.0 mi SE 11.5 mph - N/A   Overcast
12:53 AM 69.1 °F 66.9 °F 93% 29.78 in 9.0 mi SE 11.5 mph 18.4 mph N/A   Scattered Clouds
1:53 AM 69.1 °F 66.9 °F 93% 29.77 in 9.0 mi SE 9.2 mph - N/A   Overcast
2:53 AM 68.0 °F 64.9 °F 90% 29.77 in 9.0 mi SE 8.1 mph - N/A   Partly Cloudy
3:08 AM 66.2 °F 64.4 °F 94% 29.81 in 9.0 mi SE 8.1 mph - N/A   Mostly Cloudy
3:53 AM 68.0 °F 64.0 °F 87% 29.78 in 10.0 mi SSE 10.4 mph - N/A   Overcast
4:53 AM 68.0 °F 64.0 °F 87% 29.80 in 10.0 mi SE 8.1 mph - N/A   Overcast
5:53 AM 68.0 °F 64.0 °F 87% 29.81 in 10.0 mi SSE 4.6 mph - N/A   Overcast
6:53 AM 68.0 °F 64.9 °F 90% 29.81 in 9.0 mi Calm Calm - N/A   Overcast
7:45 AM 68.0 °F 66.2 °F 94% 29.86 in 5.0 mi South 6.9 mph - N/A   Overcast
7:53 AM 68.0 °F 66.0 °F 93% 29.83 in 3.0 mi South 6.9 mph - N/A   Overcast
8:00 AM 68.0 °F 66.2 °F 94% 29.87 in 2.0 mi South 10.4 mph 16.1 mph 0.00 in Rain Light Rain
8:08 AM 68.0 °F 66.2 °F 94% 29.87 in 1.8 mi SSW 12.7 mph - 0.01 in Rain Light Rain
8:17 AM 68.0 °F 66.2 °F 94% 29.86 in 2.5 mi SSW 13.8 mph - 0.01 in Rain Light Rain
8:26 AM 68.0 °F 66.2 °F 94% 29.86 in 3.0 mi SSW 17.3 mph 23.0 mph 0.01 in Rain Light Rain
8:36 AM 66.2 °F 66.2 °F 100% 29.87 in 5.0 mi SSW 12.7 mph 21.9 mph 0.02 in Rain Light Rain
8:43 AM 66.2 °F 66.2 °F 100% 29.87 in 6.0 mi SSW 10.4 mph - 0.02 in Rain , Thunderstorm Light Rain
8:50 AM 66.2 °F 66.2 °F 100% 29.88 in 9.0 mi SSW 11.5 mph - 0.03 in Rain , Thunderstorm Light Rain
8:53 AM 66.9 °F 66.0 °F 97% 29.85 in 10.0 mi SSW 12.7 mph - 0.03 in Rain Light Rain
8:58 AM 66.2 °F 66.2 °F 100% 29.88 in 10.0 mi SSW 10.4 mph - 0.00 in Rain , Thunderstorm Light Rain
9:16 AM 66.2 °F 66.2 °F 100% 29.88 in 1.8 mi SW 11.5 mph - 0.05 in Rain , Thunderstorm Light Rain
9:38 AM 66.2 °F 66.2 °F 100% 29.89 in 2.5 mi SW 12.7 mph - 0.21 in Rain , Thunderstorm Light Rain
9:53 AM 66.9 °F 66.0 °F 97% 29.85 in 2.5 mi SW 15.0 mph - 0.28 in Rain , Thunderstorm Light Rain
10:02 AM 66.2 °F 66.2 °F 100% 29.88 in 6.0 mi SW 13.8 mph - 0.01 in Rain , Thunderstorm Light Rain
10:53 AM 68.0 °F 66.9 °F 96% 29.86 in 4.0 mi West 5.8 mph - 0.04 in Rain , Thunderstorm Light Rain
11:00 AM 68.0 °F 66.2 °F 94% 29.90 in 6.0 mi Calm Calm - 0.01 in Rain Light Rain
11:20 AM 69.8 °F 66.2 °F 88% 29.91 in 10.0 mi South 3.5 mph - 0.01 in   Overcast
11:53 AM 69.1 °F 66.9 °F 93% 29.89 in 10.0 mi SE 5.8 mph - 0.01 in   Mostly Cloudy
12:24 PM 69.8 °F 66.2 °F 88% 29.92 in 10.0 mi SE 3.5 mph - N/A   Overcast
12:37 PM 69.8 °F 66.2 °F 88% 29.93 in 10.0 mi West 3.5 mph - N/A   Overcast
12:53 PM 70.0 °F 66.9 °F 90% 29.89 in 10.0 mi SSW 3.5 mph - N/A   Overcast
1:53 PM 72.0 °F 66.9 °F 84% 29.88 in 10.0 mi WSW 3.5 mph - 0.00 in   Mostly Cloudy
2:53 PM 73.9 °F 66.9 °F 79% 29.88 in 10.0 mi West 8.1 mph - N/A   Overcast
3:53 PM 75.0 °F 66.9 °F 76% 29.88 in 10.0 mi WNW 5.8 mph - N/A   Overcast
4:14 PM 75.2 °F 68.0 °F 78% 29.91 in 10.0 mi West 8.1 mph - N/A   Overcast
4:53 PM 75.0 °F 66.9 °F 76% 29.87 in 10.0 mi Calm Calm - N/A   Overcast
5:53 PM 75.9 °F 68.0 °F 76% 29.87 in 10.0 mi North 4.6 mph - N/A   Overcast
6:44 PM 75.2 °F 68.0 °F 78% 29.91 in 10.0 mi NE 4.6 mph - N/A   Partly Cloudy
6:53 PM 75.9 °F 68.0 °F 76% 29.87 in 10.0 mi NNE 4.6 mph - N/A   Partly Cloudy
7:53 PM 73.9 °F 68.0 °F 82% 29.88 in 10.0 mi ENE 3.5 mph - N/A   Clear
8:53 PM 70.0 °F 68.0 °F 93% 29.89 in 10.0 mi NE 4.6 mph - N/A   Clear
9:53 PM 70.0 °F 68.0 °F 93% 29.91 in 10.0 mi East 3.5 mph - N/A   Clear
10:53 PM 68.0 °F 66.0 °F 93% 29.92 in 9.0 mi ESE 3.5 mph - N/A   Clear
11:53 PM 64.9 °F 64.0 °F 97% 29.93 in 7.0 mi Calm Calm - N/A   Clear